HB9EKO-12 Weather Reports


time (UTC)temp
C
wind
direction
speed
KPH
gust
KPH
rain 1hr
cm
rain 24hr
cm
rain mn
cm
humidity
%
barometer
mb
20260502232507 15 0 0.0 0.0 0.00 0.00 0.00 61 1017.0
20260502231002 16 0 0.0 0.0 0.00 0.00 0.00 60 1018.0
20260502225457 16 0 0.0 0.0 0.00 0.00 0.00 60 1018.0
20260502223952 15 0 0.0 0.0 0.00 0.00 0.00 62 1018.0
20260502222446 16 0 0.0 0.0 0.00 0.00 0.00 58 1018.0
20260502220941 17 0 0.0 0.0 0.00 0.00 0.00 56 1018.0
20260502215436 16 0 0.0 0.0 0.00 0.00 0.00 56 1018.0
20260502213931 17 0 0.0 0.0 0.00 0.00 0.00 54 1017.0
20260502212425 16 0 0.0 0.0 0.00 0.00 0.00 56 1017.0
20260502210920 16 0 1.6 0.0 0.00 0.00 0.00 55 1017.0
20260502205415 17 0 0.0 0.0 0.00 0.00 0.00 50 1017.0
20260502203910 18 0 0.0 0.0 0.00 0.00 0.00 48 1017.0
20260502202404 19 0 0.0 0.0 0.00 0.00 0.00 47 1017.0
20260502200859 18 0 0.0 0.0 0.00 0.00 0.00 47 1017.0
20260502195354 18 0 0.0 0.0 0.00 0.00 0.00 47 1017.0
20260502193849 20 0 0.0 0.0 0.00 0.00 0.00 45 1017.0
20260502192343 21 0 0.0 0.0 0.00 0.00 0.00 42 1017.0
20260502190838 21 0 0.0 0.0 0.00 0.00 0.00 38 1017.0
20260502185333 22 0 0.0 0.0 0.00 0.00 0.00 36 1017.0
20260502183828 23 0 0.0 0.0 0.00 0.00 0.00 34 1017.0
20260502182322 25 0 0.0 0.0 0.00 0.00 0.00 29 1017.0
20260502180817 26 0 0.0 0.0 0.00 0.00 0.00 27 1017.0
20260502163746 35 0 0.0 0.0 0.00 0.00 0.00 17 1017.0
20260502162240 35 0 0.0 0.0 0.00 0.00 0.00 17 1017.0
20260502160735 33 0 1.6 0.0 0.00 0.00 0.00 19 1017.0
20260502152219 33 0 0.0 0.0 0.00 0.00 0.00 20 1018.0
20260502150714 33 0 4.8 0.0 0.00 0.00 0.00 21 1018.0
20260502130632 26 0 11.3 0.0 0.00 0.00 0.00 28 1020.0
20260502123622 26 0 1.6 0.0 0.00 0.00 0.00 29 1020.0
20260502122116 25 0 0.0 0.0 0.00 0.00 0.00 34 1020.0
20260502120611 25 0 0.0 0.0 0.00 0.00 0.00 35 1021.0
20260502115106 23 0 6.4 0.0 0.00 0.00 0.00 38 1021.0
20260502113601 23 0 9.7 0.0 0.00 0.00 0.00 39 1021.0
20260502112056 23 0 0.0 0.0 0.00 0.00 0.00 43 1021.0
20260502110550 22 0 0.0 0.0 0.00 0.00 0.00 42 1022.0
20260502105045 21 0 4.8 0.0 0.00 0.00 0.00 44 1022.0
20260502103540 21 0 0.0 0.0 0.00 0.00 0.00 45 1022.0
20260502102035 21 0 0.0 0.0 0.00 0.00 0.00 45 1022.0
20260502100529 21 0 1.6 0.0 0.00 0.00 0.00 45 1022.0
20260502090508 18 0 16.1 0.0 0.00 0.00 0.00 48 1023.0
20260502070426 13 0 1.6 0.0 0.00 0.00 0.00 57 1024.0
20260502064921 12 0 1.6 0.0 0.00 0.00 0.00 61 1024.0
20260502063416 12 0 0.0 0.0 0.00 0.00 0.00 63 1024.0
20260502061911 11 0 0.0 0.0 0.00 0.00 0.00 67 1024.0
20260502060405 10 0 0.0 0.0 0.00 0.00 0.00 69 1024.0
20260502054900 11 0 0.0 0.0 0.00 0.00 0.00 67 1024.0
20260502053355 11 0 0.0 0.0 0.00 0.00 0.00 67 1024.0
20260502051850 10 0 0.0 0.0 0.00 0.00 0.00 68 1024.0
20260502050345 9 0 0.0 0.0 0.00 0.00 0.00 71 1024.0
20260502044839 9 0 0.0 0.0 0.00 0.00 0.00 72 1024.0
20260502043334 9 0 0.0 0.0 0.00 0.00 0.00 72 1024.0
20260502041829 8 0 0.0 0.0 0.00 0.00 0.00 73 1024.0
20260502040324 9 0 0.0 0.0 0.00 0.00 0.00 72 1024.0
20260502034818 9 0 0.0 0.0 0.00 0.00 0.00 71 1024.0
20260502033313 9 0 0.0 0.0 0.00 0.00 0.00 71 1024.0
20260502031808 9 0 0.0 0.0 0.00 0.00 0.00 71 1024.0
20260502030303 9 0 0.0 0.0 0.00 0.00 0.00 69 1024.0
20260502024757 10 0 0.0 0.0 0.00 0.00 0.00 69 1024.0
20260502023252 9 0 0.0 0.0 0.00 0.00 0.00 69 1024.0
20260502021747 10 0 0.0 0.0 0.00 0.00 0.00 68 1024.0
20260502020242 10 0 0.0 0.0 0.00 0.00 0.00 67 1024.0
20260502014736 10 0 0.0 0.0 0.00 0.00 0.00 66 1024.0
20260502013231 10 0 0.0 0.0 0.00 0.00 0.00 65 1024.0
20260502011726 10 0 0.0 0.0 0.00 0.00 0.00 64 1024.0
20260502010221 11 0 0.0 0.0 0.00 0.00 0.00 62 1024.0
20260502004716 11 0 0.0 0.0 0.00 0.00 0.00 62 1024.0
20260502003210 10 0 0.0 0.0 0.00 0.00 0.00 63 1024.0
20260502001705 10 0 0.0 0.0 0.00 0.00 0.00 61 1024.0
20260502000200 11 0 0.0 0.0 0.00 0.00 0.00 59 1024.0
20260501234655 12 0 0.0 0.0 0.00 0.00 0.00 58 1024.0